Simultaneous Nadir Overpasses (SNOs) Predictions

Prediction of SNOs between GOES-16 and NPP Satellite Orbit:

Table of predicted SNOs for the next 14.0 days since TLE Epoch: 11/7/2025
Index Date Time (GOES-16) GOES-16 Lat,Lon NPP Lat,Lon Distance(km) Time Diff (sec)
1 11/08/2025 20:37:26 -0.00,-104.67 -0.59,-107.37 307.14 80
2 11/09/2025 20:21:22 0.00,-104.67 0.41,-102.84 209.35 80
3 11/11/2025 08:43:11 0.00,-104.68 0.75,-108.11 389.65 80
4 11/12/2025 08:21:47 -0.00,-104.68 -0.25,-103.57 126.62 80
5 11/13/2025 20:43:43 -0.00,-104.67 -0.94,-108.86 478.06 80
6 11/14/2025 20:27:38 0.00,-104.68 0.06,-104.33 39.17 80
7 11/17/2025 08:30:43 0.01,-104.70 0.07,-105.07 41.12 80
8 11/18/2025 08:09:19 0.01,-104.70 -0.94,-100.53 475.66 80
9 11/19/2025 20:31:15 -0.02,-104.69 -0.25,-105.83 129.12 80
10 11/20/2025 20:15:11 -0.02,-104.69 0.77,-101.29 388.04 80
